Date,TemperatureHighF,TemperatureAvgF,TemperatureLowF,DewpointHighF,DewpointAvgF,DewpointLowF,HumidityHigh,HumidityAvg,HumidityLow,PressureMaxIn,PressureMinIn,WindSpeedMaxMPH,WindSpeedAvgMPH,GustSpeedMaxMPH,PrecipitationSumIn
2013-1-1,64.0,51.5,44.4,45.0,38.1,34.0,80,62,38,30.28,30.18,9,2,14,0.00
2013-1-2,72.1,54.3,43.7,49.0,38.5,32.0,82,58,24,30.23,30.12,7,1,16,0.00
2013-1-3,69.6,51.9,42.7,47.0,40.6,32.0,89,67,33,30.26,30.15,8,1,12,0.00
2013-1-4,62.8,52.2,43.1,53.0,44.2,38.0,90,76,41,30.28,30.21,18,3,23,0.00
2013-1-5,59.1,51.4,47.8,50.0,47.3,44.0,94,86,72,30.30,30.14,23,5,34,0.11
2013-1-6,58.4,49.6,45.4,49.0,45.7,42.0,98,87,69,30.23,30.06,13,2,18,0.28
2013-1-7,62.1,51.3,44.6,50.0,46.2,41.0,94,83,58,30.29,30.18,10,2,13,0.00
2013-1-8,67.4,54.5,46.7,51.0,47.0,44.0,92,77,52,30.23,30.13,12,4,16,0.00
2013-1-9,57.1,50.1,46.1,51.0,46.6,40.0,94,87,76,30.15,30.07,10,1,16,0.05
2013-1-10,55.6,48.3,41.7,44.0,40.0,37.0,91,74,57,30.24,30.13,8,3,17,0.09
2013-1-11,57.7,50.0,45.4,44.0,40.2,36.0,85,70,53,30.30,30.17,8,2,18,0.02
2013-1-12,58.6,47.5,38.7,41.0,36.2,31.0,88,67,40,30.28,30.18,5,1,9,0.00
2013-1-13,57.7,45.8,35.7,38.0,29.4,22.0,76,55,33,30.29,30.19,10,2,10,0.00
2013-1-14,59.2,45.6,37.2,30.0,23.0,17.0,68,43,23,30.43,30.24,9,2,13,0.00
2013-1-15,61.2,47.2,38.2,41.0,31.4,21.0,82,56,28,30.49,30.42,8,1,10,0.00
2013-1-16,66.0,49.7,39.6,43.0,36.5,31.0,84,62,34,30.44,30.24,11,1,13,0.00
2013-1-17,74.1,54.9,43.6,51.0,40.1,34.0,77,60,28,30.24,30.14,4,0,6,0.00
2013-1-18,79.6,58.6,46.1,42.0,36.0,29.0,78,47,18,30.21,30.14,5,1,10,0.00
2013-1-19,76.5,58.5,48.4,42.0,32.0,23.0,63,40,19,30.22,30.15,3,0,7,0.00
2013-1-20,73.8,58.2,46.8,41.0,33.8,24.0,68,43,18,30.20,30.11,4,0,6,0.00
2013-1-21,82.7,62.1,47.2,48.0,31.9,21.0,70,36,12,30.17,30.05,5,1,10,0.00
2013-1-22,75.4,59.0,50.7,47.0,35.9,22.0,57,43,28,30.11,30.03,5,1,9,0.00
2013-1-23,60.1,55.6,50.6,50.0,42.4,30.0,88,63,37,30.11,29.99,18,3,27,0.04
2013-1-24,57.1,53.9,51.1,55.0,51.7,48.0,96,92,84,30.21,30.06,5,0,7,0.12
2013-1-25,72.7,59.0,53.2,60.0,54.5,52.0,97,86,59,30.21,30.07,9,2,13,0.01
2013-1-26,60.4,53.7,49.6,52.0,48.3,43.0,96,83,63,30.15,30.05,7,2,13,0.00
2013-1-27,59.6,51.8,48.2,45.0,42.9,41.0,81,72,55,30.22,30.14,9,3,15,0.00
2013-1-28,60.8,52.3,48.3,47.0,44.6,41.0,86,75,56,30.33,30.21,10,3,16,0.00
2013-1-29,60.3,52.0,46.5,48.0,45.7,42.0,92,80,63,30.39,30.30,8,2,14,0.00
2013-1-30,66.3,54.1,46.2,50.0,46.1,42.0,92,76,55,30.39,30.29,9,1,12,0.00
2013-1-31,69.8,54.3,44.4,51.0,45.3,40.0,94,74,37,30.31,30.19,7,1,10,0.00